www.pogodaiklimat.ru

Погода и климат >> Архив погоды >> Аргентина >> Хенераль Пико


ПОГОДА в Хенераль Пико

  • Прогноз погоды в Хенераль Пико
  • Монитор погоды в Хенераль Пико

АРХИВ ПОГОДЫ в Хенераль Пико

Время (UTC), дата Ветер
(напр.,м/с)
 
Видим.   Явления Облачность Т
(С)
Тd
(С)
f
(%)
Тe
(С)
Тes
(С)
Комфортность P
(гПа)
Po
(гПа)
Тmin
(С)
Tmax
(С)
R
(мм)
R24
(мм)
S
(см)
18 10.07 ЮЗ 3 20 км {туман} 3/0
[Ci fib]
+17.5 +7.0 50 +18 +21 1015.5 998.0
21 10.07 Ю 3 8000 м пыль 5/0
[Ac As Ci]
+15.1 +6.8 58 +14 +14 1015.1 997.4
00 11.07 ЮВ 2 20 км 4/0
[Ci sp]
+10.3 +5.8 74 +9 +9 1015.6 997.8 -0.6 +17.5
03 11.07 Ю 2 20 км 9/0
[Cs]
+6.1 +4.5 89 +4 +4 1016.2 998.6
06 11.07 ЮВ 2 20 км 10/0
[Cs]
+4.4 +3.4 93 +1 +1 1015.4 998.0
09 11.07 В 2 5000 м дымка 5/0
[Ci]
+3.1 +2.3 94 +1 +1 1014.3 996.8
12 11.07 ЮВ 4 800 м туман 5/0
[Ci]
+5.0 +5.0 100 +1 +1 1014.4 996.8 +2.7 +10.3
15 11.07 В 1 5000 м дымка {туман} 10/0
[Ac As]
+10.1 +9.9 99 +9 +11 1014.9 997.3
18 11.07 ЮВ 5 10 км дымка {туман} 10/5 1350 м
[Sc Ac As]
+13.3 +8.8 74 +11 +12 1013.0 995.4
21 11.07 ЮВ 4 10 км дымка 6/0
[Ac As]
+13.1 +9.0 76 +11 +11 1013.6 996.0
00 12.07 Ю 6 10 км дымка 5/0
[Ac As]
+10.1 +8.1 87 +7 +7 1014.7 997.0 +5.0 +14.5
03 12.07 Ю 2 5000 м дымка 9/0
[Ac As]
+8.6 +7.6 93 +7 +7 1016.2 998.6
06 12.07 Ю 4 5000 м дымка 9/0
[Ac As]
+8.6 +7.8 95 +5 +5 1016.6 999.2
09 12.07 ЮЗ 3 3000 м дымка 1/0
[Ac As]
+3.6 +3.6 100 -1 -1 1017.2 999.6
12 12.07 ЮЗ 3 3000 м дымка ясно +1.6 +1.1 96 -3 -3 1019.1 1001.3 +1.1 +10.1
15 12.07 Ю 5 20 км ясно +11.4 +3.3 57 +9 +12 1019.3 1001.8
18 12.07 Ю 7 20 км ясно +13.8 +4.1 52 +12 +13 1017.6 1000.2
21 12.07 Ю 3 20 км ясно +15.1 +2.1 41 +15 +15 1018.1 1000.5
00 13.07 ЮВ 2 20 км ясно +7.3 +1.7 68 +5 +5 1019.5 1001.6 +1.6 +16.4
03 13.07 С 1 20 км ясно +6.0 +0.7 69 +5 +5 1019.5 1001.8
06 13.07 С 1 20 км ясно +3.5 +0.1 78 +2 +2 1019.2 1001.6
09 13.07 В 3 20 км ясно +2.1 -1.0 80 -2 -2 1018.0 1000.4
12 13.07 штиль 0 20 км 4/0
[Ac und Ci fib]
-0.1 -1.6 90 -1 -1 1018.9 1001.0 -1.2 +8.8
15 13.07 С 3 20 км 9/3 1050 м
[Sc Ac As]
+10.5 +5.0 69 +9 +10 1019.1 1001.4
18 13.07 СВ 5 20 км 9/4 1050 м
[Sc Ac As]
+13.1 +2.2 48 +11 +12 1017.1 999.4
21 13.07 СВ 4 20 км 8/4 1050 м
[Sc Ac As]
+12.9 +5.0 59 +11 +11 1017.6 999.8
00 14.07 ЮЗ 2 20 км 3/3 900 м
[Sc]
+5.4 +4.5 94 +3 +3 1020.1 1002.1 -0.1 +14.6
03 14.07 СВ 2 20 км ясно +4.9 +4.0 94 +3 +3 1020.2 1002.5
06 14.07 С 3 20 км ясно +2.9 +2.1 94 -1 -1 1019.7 1002.0
09 14.07 СВ 1 900 м туман ясно +2.1 +1.8 98 +2 +2 1018.5 1000.8
12 14.07 СВ 3 900 м туман ясно +2.1 +1.8 98 -2 -2 1019.2 1001.3 +1.0 +5.4
15 14.07 С 5 3000 м дымка {туман} 9/0
[Ac As Cs]
+8.9 +6.5 85 +5 +7 1019.1 1001.4
18 14.07 С 6 8000 м мгла {туман} 9/0
[Ac trans]
+13.6 +7.1 65 +12 +13 1016.5 998.9
21 14.07 С 3 20 км 5/0
[Ac trans Ci]
+13.7 +5.5 58 +13 +13 1016.7 999.0
00 15.07 В 4 20 км 3/0
[Ac trans]
+9.0 +4.5 73 +6 +6 1019.0 1001.2 +2.1 +14.6
03 15.07 ЮЗ 3 20 км 5/1 900 м
[Sc Ac trans Ci sp]
+6.3 +4.2 86 +3 +3 1021.1 1003.4
06 15.07 ЮЗ 3 20 км 4/0
[Ac und Ci sp]
+6.0 +4.9 93 +3 +3 1021.9 1004.2
09 15.07 ЮЗ 3 20 км ясно +3.0 -0.2 79 -1 -1 1022.4 1004.6
12 15.07 З 3 20 км 3/0
[Ci]
+1.2 -3.0 74 -3 -3 1024.5 1006.6 +0.3 +9.0
15 15.07 ЮЗ 5 20 км 4/0
[Ci]
+10.1 0.0 49 +8 +11 1025.3 1007.4
18 15.07 З 6 20 км 1/0
[Ci fib]
+15.5 +1.8 40 +14 +16 1023.1 1005.4
21 15.07 ЮЗ 3 20 км ясно +13.6 +2.0 45 +13 +13 1022.9 1005.2
00 16.07 С 2 20 км ясно +6.1 +2.7 79 +4 +4 1023.6 1005.6 +1.2 +16.0
03 16.07 С 3 20 км ясно +7.5 +0.2 60 +5 +5 1023.1 1005.4
06 16.07 С 5 20 км ясно +6.1 +0.2 66 +2 +2 1022.1 1004.6
09 16.07 С 7 20 км ясно +6.2 -0.9 60 +2 +2 1020.9 1003.3
12 16.07 С 7 20 км 3/0
[Ci fib]
+5.1 -0.4 68 0 0 1020.8 1003.0 +3.8 +8.0
15 16.07 С 11 20 км 3/0
[Ci fib]
+14.9 +0.2 37 +13 +13 1020.5 1003.0
18 16.07 С 7 8000 м пыльный позёмок 4/0
[Ac As]
+18.5 +3.5 37 +18 +19 1017.1 999.7
21 16.07 С 7 20 км 8/0
[Ac As]
+17.0 +5.0 45 +16 +16 1017.0 999.6
00 17.07 С 6 20 км 3/0
[Ac As]
+12.5 +5.5 62 +10 +10 1017.7 1000.1 +5.1 +19.5
03 17.07 СВ 7 20 км 5/0
[Ac As]
+9.9 +4.1 67 +6 +6 1018.5 1001.0
06 17.07 С 7 20 км 4/0
[Ac As]
+9.9 +5.1 72 +6 +6 1018.2 1000.9
09 17.07 С 7 20 км 6/0
[Ac As Ci sp]
+8.5 +5.9 84 +4 +4 1016.7 999.4
12 17.07 С 8 15 км 6/0
[Ac As Ci]
+8.3 +5.4 82 +4 +4 1017.0 999.4 +7.5 +12.5
15 17.07 С 10 20 км 8/4 1500 м
[Sc Ci]
+13.5 +7.2 66 +11 +11 1016.0 998.6

 

Местоположение метеостанции Хенераль Пико (Аргентина): широта -35.70 долгота -63.75 высота над уровнем моря 139 м.

В архиве по умолчанию представлена погода в Хенераль Пико за последнюю неделю. Архивные данные за месяц целиком и за предыдущие месяцы, начиная с января 2011 года, Вы можете получить, выбрав интересующий диапазон дат из раскрывающегося списка и нажав кнопку "Ввод!".


*Определитесь, кто Вы:
робот инопланетянин человек

Внимание! Время в таблицах - всемирное. Для получения местного времени необходимо прибавить поправку, которая равна -3 ч.

Смотрите также архив погоды в соседних городах и на ближайших метеорологических станциях:

Погода в Санкт-Розе (Аргентина) (106 км)
Погода в Лабоулайе (Аргентина) (178 км)
Погода в Боливаре (Аргентина) (248 км)
Погода в Вилья Рейнольдс (Аргентина) (265 км)
Погода в Хунине (Аргентина) (288 км)
Погода в Рио-Куарто (Аргентина) (294 км)
Погода в Сан-Луисе (Аргентина) (361 км)
Погода в Маркос Хуарес (Аргентина) (365 км)
Погода в Баия-Бланке (Аргентина) (365 км)
Погода в Азуле (Аргентина) (369 км)

Пояснения к столбцам:

Ветер - указаны скорость ветра в м/с - средняя за 10 мин, порывы в срок и между сроками (в фигурных скобках) и направление, откуда дует ветер: С - северный, СВ - северо-восточный, В - восточный, ЮВ - юго-восточный, Ю - южный, ЮЗ - юго-западный, З - западный, СЗ - северо-западный.
Видимость - горизонтальная дальность видимости в метрах или километрах. При видимости от 1 до 10 км при отсутствии осадков обычно наблюдается дымка, при ухудшении видимости до 1 км и менее - туман. В сухую погоду видимость может ухудшаться дымом, пылью или мглою.
Явления - указаны атмосферные явления, наблюдавшиеся в срок или в последний час перед сроком; фигурными скобками обозначены явления, наблюдавшиеся между сроками (за 1-3 часа до срока); квадратными скобками обозначены град или гололедные отложения с указанием их диаметра в мм.
Облачность - указаны через наклонную черту общая и нижняя облачность в баллах и высота нижней границы облаков в метрах; квадратными скобками обозначены формы облаков: Ci - перистые, Cs - перисто-слоистые, Cc - перисто-кучевые, Ac - высококучевые, As - высокослоистые, Sc - слоисто-кучевые, Ns - слоисто-дождевые, Cu - кучевые, Cb - кучево-дождевые. Подробнее классификацию облаков см. в Атласе облаков (PDF).
T - Температура воздуха - температура, измеренная на высоте 2 м над землей.
Td - Температура точки росы - температура, при понижении до которой содержащийся в воздухе водяной пар достигнет насыщения.
f - Относительная влажность воздуха - влажноcть воздуха, измеренная на высоте 2 м над землей.
Te - Эффективная температура - температура, которую ощущает одетый по сезону человек в тени. Характеристика душности погоды. При расчете учитывается влияние влажности воздуха и скорости ветра на теплоощущения человека.
Tes - Эффективная температура на солнце - температура, которую ощущает человек, с поправкой на солнечный нагрев. Характеристика знойности погоды. Зависит от высоты солнца над горизонтом, облачности и скорости ветра. Ночью, в пасмурную погоду, а также при ветре 12 м/с и более поправка равна нулю.
P - Атмосферное давление - приведенное к уровню моря атмосферное давление.
Po - Атмосферное давление - измеренное на уровне метеостанции атмосферное давление.
Tmin - Минимальная температура - минимум температуры воздуха на высоте 2 м над землей.
Tmax - Максимальная температура - максимум температуры воздуха на высоте 2 м над землей.
R - Количество осадков - Количество выпавших осадков за период времени, мм. При наведении курсора мыши на число - период времени, за который выпало указанное количество осадков.
R24 - Количество осадков - Количество выпавших осадков за 24 часа, мм.
S - Снежный покров - Высота снежного покрова, см. При наведении курсора мыши на число - состояние снежного покрова и степень покрытия местности в баллах.